#timestamp,LO_Frequency,Hit 
1498788015.4,286047035.5,N
1498788035.3,286047031.0,N
1498788055.1,286047027.3,N
1498788075.8,286047026.6,N
1498788095.7,286047024.1,N
1498788115.5,286047022.9,N
1498788135.3,286047029.8,N
1498788155.2,286047036.6,N
1498788175.9,286047043.5,N
1498788195.7,286047047.7,N
1498788215.6,286047052.5,N
1498788235.4,286047054.2,N
1498788255.2,286047054.3,N
1498788275.1,286047048.9,N
1498788276.0,286047048.9,N
1498788295.8,286047051.1,N
1498788315.6,286047051.3,N
1498788335.5,286047050.2,N
1498788355.3,286047055.3,N
1498788375.1,286047054.3,N
1498788395.8,286047059.4,N
1498788415.7,286047065.6,N
1498788435.5,286047068.4,N
1498788455.3,286047064.7,N
1498788475.2,286047059.2,N
1498788495.9,286047057.9,N
1498788515.7,286047055.6,N
1498788535.6,286047047.1,N
1498788555.4,286047039.9,N
1498788575.2,286047039.5,N
1498788595.1,286047034.7,N
1498788596.0,286047034.7,N
1498788615.8,286047030.5,N
1498788635.6,286047027.3,N
1498788655.5,286047030.8,N
1498788675.3,286047037.4,N
1498788695.1,286047049.2,N
1498788715.8,286047048.4,N
1498788735.7,286047050.5,N
1498788755.5,286047045.2,N
1498788775.3,286047038.3,N
1498788795.2,286047033.4,N
1498788815.9,286047030.8,N
1498788835.7,286047026.0,N
1498788855.6,286047026.6,N
1498788875.4,286047022.5,N
1498788895.2,286047029.5,N
1498788915.1,286047029.1,N
1498788916.0,286047029.1,N
1498788935.8,286047027.1,N
1498788955.6,286047028.8,N
1498788975.5,286047026.3,N
1498788995.3,286047021.1,N
1498789015.1,286047018.4,N
1498789035.8,286047014.1,N
1498789055.7,286047017.3,N
1498789075.5,286047024.4,N
1498789095.3,286047027.3,N
1498789115.2,286047028.2,N
1498789135.0,286047029.8,N
1498789135.9,286047029.8,N
1498789155.7,286047026.9,N
1498789175.6,286047022.3,N
1498789195.4,286047022.5,N
1498789215.2,286047029.6,N
1498789235.1,286047029.0,N
1498789236.0,286047029.0,N
1498789255.8,286047030.6,N
1498789275.6,286047031.1,N
1498789295.5,286047030.0,N
1498789315.3,286047029.8,N
1498789335.1,286047030.9,N
1498789355.9,286047033.9,N
1498789375.7,286047036.3,N
1498789395.5,286047032.6,N
1498789415.3,286047027.2,N
1498789435.2,286047024.9,N
1498789455.0,286047025.3,N
1498789455.9,286047025.3,N
1498789475.7,286047027.8,N
1498789495.6,286047030.3,N
1498789515.4,286047032.6,N
1498789535.2,286047037.5,N
1498789555.1,286047038.3,N
1498789556.0,286047038.3,N
1498789575.8,286047038.1,N
1498789595.6,286047040.0,N
1498789615.5,286047040.2,N
1498789635.3,286047043.9,N
1498789655.1,286047043.0,N
1498789675.9,286047041.8,N
1498789695.7,286047038.1,N
1498789715.5,286047035.4,N
1498789735.3,286047032.2,N
1498789755.2,286047036.1,N
1498789775.0,286047036.9,N
1498789775.9,286047036.9,N
1498789795.7,286047038.7,N
1498789815.6,286047039.9,N
1498789835.4,286047038.6,N
1498789855.2,286047035.4,N
1498789875.1,286047034.7,N
1498789876.0,286047034.7,N
1498789895.8,286047034.7,N
1498789915.6,286047032.0,N
1498789935.5,286047032.2,N
1498789955.3,286047031.2,N
1498789975.1,286047026.1,N
1498789995.9,286047028.2,N
1498790015.7,286047027.0,N
1498790035.5,286047037.6,N
1498790055.4,286047040.6,N
1498790075.2,286047039.1,N
1498790095.0,286047037.0,N
1498790095.9,286047037.0,N
1498790115.8,286047033.7,N
1498790135.6,286047034.2,N
1498790155.4,286047041.1,N
1498790175.2,286047041.2,N
1498790195.1,286047036.7,N
1498790196.0,286047036.7,N
1498790215.8,286047039.5,N
1498790235.6,286047037.2,N
1498790255.5,286047037.4,N
1498790275.3,286047041.1,N
1498790295.1,286047036.7,N
1498790315.9,286047037.7,N
1498790335.7,286047036.1,N
1498790355.5,286047036.5,N
1498790375.4,286047039.1,N
1498790395.2,286047038.5,N
1498790415.0,286047040.6,N
1498790415.9,286047040.6,N
1498790435.8,286047041.8,N
1498790455.6,286047041.3,N
1498790475.4,286047042.0,N
1498790495.2,286047043.4,N
1498790515.1,286047049.4,N
1498790516.0,286047049.4,N
1498790535.8,286047050.6,N
1498790555.6,286047046.3,N
1498790575.5,286047043.1,N
1498790595.3,286047041.2,N
1498790615.1,286047035.9,N
1498790635.9,286047032.8,N
1498790655.7,286047028.7,N
1498790675.5,286047029.2,N
1498790695.4,286047028.8,N
1498790715.2,286047030.4,N
1498790735.0,286047034.6,N
1498790735.9,286047034.6,N
1498790755.8,286047029.6,N
1498790775.6,286047027.0,N
1498790795.4,286047029.2,N
1498790815.2,286047032.9,N
1498790835.1,286047036.1,N
1498790836.0,286047036.1,N
1498790855.8,286047034.9,N
1498790875.6,286047035.1,N
1498790895.5,286047039.5,N
1498790915.3,286047037.1,N
1498790935.1,286047033.9,N
1498790955.9,286047036.7,N
1498790975.7,286047039.6,N
1498790995.5,286047040.9,N
1498791015.4,286047040.9,N
1498791035.2,286047042.5,N
1498791055.0,286047044.0,N
1498791055.9,286047044.0,N
1498791075.8,286047047.5,N
1498791095.6,286047045.2,N
1498791115.4,286047043.2,N
1498791135.2,286047045.0,N
1498791155.1,286047044.8,N
1498791156.0,286047044.8,N
1498791175.8,286047044.5,N
1498791195.6,286047048.0,N
1498791215.5,286047049.5,N
1498791235.3,286047051.9,N
1498791255.1,286047049.3,N
1498791275.9,286047052.1,N
1498791295.7,286047049.6,N
1498791315.5,286047050.5,N
1498791335.4,286047050.8,N
1498791355.2,286047050.1,N
1498791375.0,286047052.4,N
1498791375.9,286047052.4,N
1498791395.8,286047049.8,N
1498791415.6,286047049.5,N
1498791435.4,286047049.3,N
1498791455.2,286047051.8,N
1498791475.1,286047053.6,N
1498791476.0,286047053.6,N
1498791495.8,286047052.9,N
1498791515.6,286047053.9,N
1498791535.5,286047054.8,N
1498791555.3,286047055.2,N
1498791575.1,286047054.2,N
1498791595.9,286047057.2,N
